Notices

What's New in latest Release from April 7th, 2021:

- Updated Glossary, including Speed of Maximum Gust, and Total Hourly Precipitation

- Updated national and regional climate services offices contacts and prices information

- Addition of station inventory lists for 1981-2010, 1971-2000, and 1961-1990 Normals.

If you haven't already, please take our survey and provide feedback about our website: https://eccc.sondage-survey.ca/f/LanguageSelection.aspx?s=442ca660-fcf1-47c0-95a9-59707d6fd709

Hourly Data Report for May 31, 2020

TRENTON A
ONTARIO
Current Station Operator: DND

44°07'00.000" N
77°32'00.000" W
86.30 m
6158875
71621
YTR

Download Data

Hourly Data (May 2020)
Hourly Data Report for May 31, 2020
TIME
LST
Temp Definition
°C
Dew Point Definition
°C
Rel Hum Definition
%
Precip. Amount Definition
mm

Wind Dir Definition
10's deg

Wind Spd Definition
km/h
Visibility Definition
km
Stn Press Definition
kPa
Hmdx Definition


Wind Chill Definition


Weather Definition


00:00 6.9 3.6 80     0 24.1 100.93     Clear
01:00 5.4 4.0 91   2 4 24.1 100.94     Mainly Clear
02:00 5.0 4.1 94   3 4 24.1 100.94     Mainly Clear
03:00 6.4 5.1 91     0 24.1 100.96     Mostly Cloudy
04:00 6.7 5.2 90     0 24.1 100.99     Cloudy
05:00 7.1 6.1 93   33 5 24.1 101.05     Cloudy
06:00 7.8 6.4 91   29 8 19.3 101.12     Rain Showers
07:00 9.0 6.4 84   33 13 24.1 101.18     Mostly Cloudy
08:00 10.9 5.6 70   33 15 24.1 101.22     Mainly Clear
09:00 12.2 3.2 54   35 8 24.1 101.17     Mainly Clear
10:00 11.8 0.7 47   30 22 24.1 101.20     Mostly Cloudy
11:00 12.2 0.3 44   31 15 24.1 101.21     Mostly Cloudy
12:00 14.2 1.2 41   29 22 24.1 101.18     Mostly Cloudy
13:00 14.1 0.2 39   31 15 24.1 101.16     Mostly Cloudy
14:00 14.8 0.8 38   29 18 24.1 101.13     Mostly Cloudy
15:00 15.0 1.5 40   28 18 24.1 101.10     Mostly Cloudy
16:00 15.7 1.1 37   31 28 24.1 101.10     Mostly Cloudy
17:00 14.4 0.4 38   30 26 24.1 101.08     Mainly Clear
18:00 13.8 1.4 43   30 24 24.1 101.09     Mainly Clear
19:00 12.5 1.6 47   29 24 24.1 101.14     Mainly Clear
20:00 10.6 1.5 53   30 13 24.1 101.23     Mainly Clear
21:00 9.0 2.1 62   30 8 24.1 101.28     Mainly Clear
22:00 8.3 2.5 67   27 5 24.1 101.29     Mainly Clear
23:00 8.6 3.2 69   31 4 24.1 101.28     Mostly Cloudy

Notes on Data Quality.

Legend

  • E = Estimated
  • M = Missing
  • NA = Not Available*
  • [empty] = Indicates an unobserved value
Date modified: